[[{"header":{"parameterUnit":"m.s-1","parameterCategory":1,"la1":30.2991,"la2":30.254,"lo1":-89.0895,"lo2":-89.0444,"dy":0.0017,"dx":0.0017,"nx":28,"ny":28,"refTime":"2024-07-20T03:00:00:Z","depth":0,"parameterNumber":2,"parameterNumberName":"U-component_of_WINDS"},"data":[0,0,0,0,0,0,0,0,0,0,0,0,0,0,0,0,0,0,0,0,0,0,0,0,0,0,0,0,0,0,0,0,0,0,0,0,0,0,0,0,0,0,0,0,0,0,0,0,0,0,0,0,0,0,0,0,0,0,1.3341,1.3341,0,1.338,1.338,1.338,1.3397,1.3397,1.3397,1.3397,1.3439,1.344,1.3441,0,0,0,0,0,0,0,0,0,0,0,0,0,1.3285,1.3285,1.3341,1.3341,1.3342,1.338,1.338,1.3381,1.3397,1.3397,1.3397,1.3396,1.3439,1.344,1.3442,0,0,0,0,0,0,0,0,0,0,0,0,0,1.3315,1.3286,1.3341,1.3354,1.3356,1.3379,1.338,1.3381,1.3397,1.3397,1.3397,1.3396,1.3438,1.344,1.3442,1.3455,0,0,1.3447,1.3448,0,0,0,0,0,0,0,0,1.3313,1.3317,1.3352,1.3353,1.3355,1.3383,1.3376,1.3406,1.3397,1.3381,1.3397,1.3396,1.3421,1.3424,1.3432,1.3457,1.3459,1.3447,1.3449,1.3449,1.345,0,0,0,0,0,0,0,1.3311,1.3315,1.3356,1.3352,1.3354,1.336,1.3364,1.3382,1.3401,1.3383,1.3384,1.3388,1.3422,1.343,1.3433,1.346,1.3447,1.3449,1.345,1.3451,1.3501,1.3501,0,0,0,0,0,0,1.3306,1.3313,1.3355,1.3357,1.3333,1.3361,1.3365,1.3374,1.3401,1.3405,1.3388,1.3389,1.3427,1.3431,1.3434,1.3453,1.3449,1.3451,1.3452,1.3501,1.3501,1.3501,0,0,0,0,0,0,1.3305,1.331,1.3353,1.3336,1.3342,1.3362,1.3372,1.3375,1.3383,1.3405,1.3409,1.3393,1.3427,1.3432,1.345,1.3455,1.3452,1.3454,1.35,1.3501,1.3501,1.349,0,0,0,0,0,0,1.3303,1.3309,1.3313,1.3336,1.3343,1.3367,1.3372,1.3376,1.3386,1.3387,1.3411,1.3414,1.3427,1.3447,1.3452,1.3457,1.3455,1.35,1.35,1.3501,1.349,1.349,1.349,0,0,0,0,0,1.3301,1.3309,1.3314,1.3319,1.3348,1.3368,1.3372,1.3385,1.3386,1.3392,1.3406,1.3414,1.3453,1.3449,1.3455,1.346,1.35,1.35,1.3501,1.349,1.349,1.349,0,0,0,0,0,0,1.3288,1.3312,1.3317,1.3333,1.3348,1.337,1.3377,1.3385,1.3401,1.3401,1.3418,1.3424,1.3441,1.3453,1.3447,1.3476,1.3477,1.3479,1.3467,1.3467,1.3467,1.3464,1.3456,0,0,0,0,0,1.3286,1.3299,1.332,1.3332,1.3339,1.3357,1.3366,1.3375,1.3392,1.3399,1.3414,1.3431,1.3448,1.3458,1.3475,1.3492,1.3498,1.3499,1.3499,1.3498,1.35,1.3511,1.3512,1.3503,1.3503,1.3503,0,0,1.3284,1.3299,1.3306,1.3329,1.3342,1.3356,1.3362,1.3376,1.3387,1.3401,1.3419,1.3432,1.3452,1.347,1.3479,1.348,1.3504,1.3499,1.3499,1.35,1.3512,1.3513,1.3513,1.3503,1.3503,1.3503,0,0,1.3287,1.3299,1.331,1.3323,1.3342,1.3354,1.3357,1.3379,1.3387,1.3406,1.3417,1.3431,1.3458,1.3473,1.3484,1.3493,1.3501,1.3498,1.3498,1.3509,1.3509,1.351,1.3515,1.3516,1.35,1.3499,1.3499,0,1.3282,1.3302,1.3316,1.3329,1.334,1.3353,1.3365,1.3377,1.3401,1.3409,1.341,1.3446,1.346,1.3483,1.3485,1.3493,1.3498,1.3496,1.3508,1.3509,1.351,1.3514,1.3516,1.3499,1.3499,1.3499,1.3499,0,1.3295,1.3309,1.3316,1.3338,1.335,1.3363,1.338,1.339,1.3399,1.3411,1.3431,1.3449,1.347,1.3476,1.3484,1.35,1.35,1.3504,1.3506,1.351,1.3514,1.3516,1.3498,1.3499,1.3499,1.3499,0,0,1.329,1.332,1.3322,1.3333,1.3356,1.3368,1.3382,1.3402,1.341,1.3427,1.344,1.3464,1.3469,1.3481,1.3492,1.3501,1.3509,1.3505,1.3505,1.3505,1.3529,1.3525,1.3527,1.3515,1.3515,1.3515,1.3527,0,1.3296,1.3321,1.3335,1.3355,1.3368,1.3382,1.3394,1.3411,1.3423,1.3438,1.3452,1.3468,1.3472,1.348,1.349,1.3506,1.3514,1.3505,1.3528,1.3529,1.3523,1.3529,1.3526,1.3536,1.3529,1.3529,1.3529,0,1.3307,1.3322,1.3343,1.3366,1.3372,1.3383,1.3403,1.3416,1.3435,1.3444,1.3458,1.3469,1.3486,1.3487,1.3512,1.3506,1.3516,1.3526,1.3526,1.3529,1.3529,1.3533,1.3539,1.3541,1.3532,1.3532,1.3532,0,1.3301,1.3328,1.3344,1.3353,1.3379,1.3387,1.3398,1.3417,1.3429,1.3446,1.3454,1.3474,1.3485,1.3501,1.3517,1.3516,1.3541,1.3543,1.355,1.3549,1.3554,1.3554,1.3563,1.356,1.356,1.356,1.356,0,1.3307,1.332,1.3342,1.3352,1.3368,1.3384,1.3399,1.3411,1.3428,1.3442,1.3455,1.3468,1.3489,1.3505,1.3518,1.3538,1.3543,1.3551,1.3554,1.355,1.3549,1.3557,1.3557,1.3561,1.3561,1.3561,1.3561,0,1.3304,1.3319,1.3338,1.3361,1.3368,1.3378,1.3398,1.341,1.3423,1.344,1.3446,1.3467,1.3487,1.3505,1.3531,1.354,1.356,1.3564,1.3553,1.3555,1.3561,1.356,1.3576,1.3579,1.3574,1.3574,1.3574,0,1.3306,1.3316,1.3341,1.335,1.3361,1.3377,1.3389,1.3406,1.3417,1.3441,1.345,1.347,1.3487,1.3519,1.3537,1.3558,1.3563,1.3567,1.3566,1.3562,1.3564,1.3563,1.3565,1.3567,1.3567,1.3567,1.3567,0,1.331,1.3317,1.3333,1.3351,1.3365,1.338,1.3397,1.3404,1.3425,1.3438,1.3458,1.3471,1.3498,1.3519,1.3542,1.3555,1.3565,1.3567,1.357,1.3566,1.3559,1.3564,1.3553,1.3567,1.3567,1.3567,1.3567,1.3567,1.331,1.332,1.3338,1.3356,1.337,1.3385,1.3397,1.3412,1.3428,1.3451,1.346,1.3481,1.3502,1.3534,1.3547,1.3565,1.3567,1.357,1.3572,1.3572,1.3572,1.3556,1.3569,1.3569,1.3569,1.3569,1.3569,0,1.3314,1.3327,1.3343,1.3365,1.3379,1.3386,1.3405,1.3417,1.3434,1.3453,1.3469,1.3493,1.3514,1.3534,1.3557,1.3567,1.3572,1.3572,1.3572,1.3575,1.3568,1.3564,1.3567,1.3567,1.3567,1.3567,1.3567,1.3567,1.3318,1.3336,1.3345,1.3371,1.3384,1.3403,1.3414,1.3428,1.3443,1.3468,1.3485,1.3498,1.3518,1.3542,1.3562,1.3568,1.3575,1.3574,1.3581,1.3575,1.3575,1.3575,1.3571,1.3576,1.3576,1.3586,1.3587,1.3587]},{"header":{"parameterUnit":"m.s-1","parameterCategory":1,"la1":30.2991,"la2":30.254,"lo1":-89.0895,"lo2":-89.0444,"dy":0.0017,"dx":0.0017,"nx":28,"ny":28,"refTime":"2024-07-20T03:00:00:Z","depth":0,"parameterNumber":3,"parameterNumberName":"V-component_of_WINDS"},"data":[0,0,0,0,0,0,0,0,0,0,0,0,0,0,0,0,0,0,0,0,0,0,0,0,0,0,0,0,0,0,0,0,0,0,0,0,0,0,0,0,0,0,0,0,0,0,0,0,0,0,0,0,0,0,0,0,0,0,-0.3072,-0.3071,0,-0.3011,-0.301,-0.301,-0.2971,-0.2971,-0.2971,-0.2971,-0.2908,-0.2907,-0.2906,0,0,0,0,0,0,0,0,0,0,0,0,0,-0.3157,-0.3156,-0.3072,-0.3071,-0.307,-0.3011,-0.301,-0.3009,-0.2971,-0.2971,-0.2971,-0.2971,-0.2909,-0.2907,-0.2906,0,0,0,0,0,0,0,0,0,0,0,0,0,-0.311,-0.3155,-0.3072,-0.3044,-0.3041,-0.3011,-0.301,-0.3009,-0.2971,-0.2971,-0.2971,-0.297,-0.291,-0.2907,-0.2905,-0.2898,0,0,-0.2899,-0.2898,0,0,0,0,0,0,0,0,-0.3113,-0.3107,-0.3049,-0.3046,-0.3042,-0.2998,-0.3017,-0.2972,-0.2971,-0.2998,-0.2971,-0.297,-0.2939,-0.2934,-0.2923,-0.2895,-0.2893,-0.2898,-0.2897,-0.2896,-0.2896,0,0,0,0,0,0,0,-0.3116,-0.311,-0.3048,-0.3048,-0.3044,-0.3035,-0.3028,-0.3009,-0.2971,-0.2995,-0.2993,-0.2986,-0.2937,-0.2926,-0.2922,-0.2892,-0.2899,-0.2897,-0.2895,-0.2894,-0.2858,-0.2859,0,0,0,0,0,0,-0.3124,-0.3113,-0.305,-0.3046,-0.3078,-0.3034,-0.3026,-0.3013,-0.2971,-0.2964,-0.2986,-0.2984,-0.2929,-0.2924,-0.2919,-0.291,-0.2896,-0.2894,-0.2893,-0.2858,-0.2858,-0.2859,0,0,0,0,0,0,-0.3126,-0.3119,-0.3052,-0.3078,-0.3069,-0.3033,-0.3018,-0.3012,-0.3,-0.2964,-0.2957,-0.2982,-0.2929,-0.2922,-0.2905,-0.2908,-0.2893,-0.2891,-0.2858,-0.2858,-0.2859,-0.2891,0,0,0,0,0,0,-0.3128,-0.3119,-0.3116,-0.3079,-0.3068,-0.3038,-0.3018,-0.3011,-0.2997,-0.2994,-0.2958,-0.2951,-0.2928,-0.2908,-0.2902,-0.2904,-0.289,-0.2857,-0.2858,-0.2859,-0.289,-0.2893,-0.2895,0,0,0,0,0,-0.3132,-0.3127,-0.3116,-0.3108,-0.3063,-0.3038,-0.3032,-0.3005,-0.2997,-0.2994,-0.2971,-0.2953,-0.2908,-0.2907,-0.29,-0.2901,-0.2857,-0.2858,-0.2858,-0.2888,-0.2892,-0.2895,0,0,0,0,0,0,-0.3164,-0.3121,-0.3109,-0.3091,-0.3069,-0.3031,-0.3026,-0.301,-0.2988,-0.2986,-0.2954,-0.2947,-0.2933,-0.2915,-0.2914,-0.2894,-0.2881,-0.288,-0.2906,-0.2909,-0.2912,-0.2917,-0.2888,0,0,0,0,0,-0.317,-0.3153,-0.3116,-0.3105,-0.3094,-0.3062,-0.305,-0.3032,-0.3007,-0.2997,-0.2973,-0.295,-0.2931,-0.2919,-0.2899,-0.2887,-0.288,-0.2885,-0.2888,-0.2891,-0.2891,-0.2886,-0.2888,-0.2861,-0.2861,-0.2861,0,0,-0.318,-0.3154,-0.3145,-0.3111,-0.3091,-0.3075,-0.3054,-0.3038,-0.3026,-0.2995,-0.2977,-0.2959,-0.2931,-0.2917,-0.2909,-0.2901,-0.2897,-0.2892,-0.2894,-0.2892,-0.2887,-0.2889,-0.2891,-0.2862,-0.2862,-0.2862,0,0,-0.3191,-0.317,-0.3159,-0.314,-0.3111,-0.309,-0.3088,-0.3054,-0.3041,-0.3022,-0.3,-0.2986,-0.2953,-0.2935,-0.2921,-0.293,-0.2913,-0.2924,-0.2939,-0.2935,-0.2937,-0.2938,-0.2943,-0.2945,-0.2924,-0.2924,-0.2924,0,-0.3208,-0.3182,-0.3155,-0.3141,-0.3127,-0.3099,-0.3089,-0.3072,-0.3038,-0.303,-0.3022,-0.2983,-0.2962,-0.2944,-0.2946,-0.2936,-0.2933,-0.2928,-0.2939,-0.294,-0.2941,-0.2945,-0.2947,-0.2926,-0.2926,-0.2926,-0.2926,0,-0.3205,-0.3189,-0.3184,-0.3153,-0.3138,-0.3126,-0.3098,-0.3087,-0.3071,-0.3052,-0.3035,-0.301,-0.2986,-0.298,-0.2963,-0.2961,-0.2958,-0.2945,-0.2931,-0.2946,-0.2949,-0.2951,-0.2928,-0.2928,-0.2927,-0.2927,0,0,-0.3233,-0.319,-0.3188,-0.3175,-0.3143,-0.3129,-0.3117,-0.3094,-0.3087,-0.3065,-0.3055,-0.3029,-0.3018,-0.3003,-0.2985,-0.2981,-0.2991,-0.2968,-0.2967,-0.2975,-0.299,-0.3,-0.3002,-0.298,-0.298,-0.2981,-0.2993,0,-0.324,-0.3216,-0.3193,-0.3178,-0.3163,-0.3139,-0.3128,-0.3108,-0.3091,-0.3076,-0.3057,-0.304,-0.3026,-0.3017,-0.3012,-0.2991,-0.2994,-0.299,-0.2972,-0.2971,-0.298,-0.3004,-0.3014,-0.3026,-0.2994,-0.2994,-0.2994,0,-0.3244,-0.3225,-0.3209,-0.3181,-0.3174,-0.3165,-0.3144,-0.313,-0.3108,-0.3096,-0.3081,-0.3062,-0.3049,-0.3038,-0.3021,-0.3018,-0.301,-0.2999,-0.2999,-0.2997,-0.2984,-0.3003,-0.3029,-0.3032,-0.2995,-0.2995,-0.2995,0,-0.3268,-0.3238,-0.3225,-0.3215,-0.3181,-0.3176,-0.3162,-0.3139,-0.3128,-0.311,-0.3103,-0.3083,-0.3072,-0.3058,-0.3035,-0.3028,-0.3022,-0.3007,-0.3012,-0.3013,-0.3012,-0.3012,-0.3038,-0.3005,-0.3005,-0.3005,-0.3005,0,-0.3278,-0.3269,-0.3236,-0.3228,-0.3219,-0.3193,-0.3185,-0.3169,-0.3149,-0.3139,-0.3116,-0.3107,-0.3077,-0.3065,-0.3047,-0.3037,-0.3032,-0.3023,-0.3018,-0.3025,-0.3027,-0.3019,-0.3018,-0.3006,-0.3006,-0.3005,-0.3005,0,-0.3302,-0.3279,-0.3264,-0.3235,-0.3227,-0.3222,-0.3197,-0.3189,-0.3172,-0.3159,-0.3155,-0.3127,-0.3112,-0.3088,-0.3065,-0.3054,-0.3047,-0.3039,-0.3055,-0.3053,-0.306,-0.306,-0.3082,-0.3085,-0.305,-0.305,-0.305,0,-0.331,-0.3303,-0.3274,-0.3266,-0.3253,-0.324,-0.3229,-0.3205,-0.3195,-0.3171,-0.3166,-0.315,-0.3135,-0.3112,-0.3091,-0.3074,-0.3066,-0.3075,-0.3063,-0.3071,-0.3068,-0.3069,-0.3069,-0.3078,-0.3078,-0.3079,-0.3079,0,-0.3327,-0.3317,-0.3303,-0.3286,-0.3274,-0.3259,-0.3242,-0.3237,-0.3209,-0.32,-0.3185,-0.3173,-0.3152,-0.3136,-0.3117,-0.3103,-0.3087,-0.3083,-0.3084,-0.3091,-0.3101,-0.3098,-0.3064,-0.3083,-0.3082,-0.3082,-0.3082,-0.3082,-0.3344,-0.3338,-0.3318,-0.3304,-0.329,-0.3276,-0.3268,-0.3251,-0.3238,-0.3219,-0.3206,-0.3192,-0.3173,-0.3146,-0.3133,-0.3123,-0.3116,-0.3116,-0.3116,-0.3117,-0.312,-0.3103,-0.3119,-0.3119,-0.3119,-0.3119,-0.3119,0,-0.3362,-0.3348,-0.3335,-0.3315,-0.3304,-0.3291,-0.3274,-0.3266,-0.3254,-0.3238,-0.3225,-0.3209,-0.3195,-0.3174,-0.3158,-0.3154,-0.3147,-0.3151,-0.3151,-0.3149,-0.3127,-0.3129,-0.3158,-0.3158,-0.3158,-0.3158,-0.3158,-0.3158,-0.3369,-0.336,-0.3348,-0.3332,-0.3319,-0.3306,-0.3297,-0.3286,-0.3273,-0.3257,-0.3245,-0.3232,-0.3214,-0.3198,-0.3185,-0.3179,-0.3175,-0.3182,-0.3174,-0.3154,-0.315,-0.3147,-0.3148,-0.3181,-0.3181,-0.3197,-0.3197,-0.3197]}]]